Hourly Data Report for September 09, 2017

All times are specified in Local Standard Time (LST). Add 1 hour to adjust for Daylight Saving Time where and when it is observed.

ST. PETERS
PRINCE EDWARD ISLAND

46°27'01.000" N
62°34'33.000" W
29.70 m
8300562
71310
ZSP

Download Data

Hourly Data (September 2017)
Hourly Data Report for September 9, 2017
Temp Definition
°C
Dew Point Temp Definition
°C
Rel Hum Definition
%
Wind Dir Definition
10's deg

Wind Spd Definition
km/h
Visibility Definition
km
Stn Press Definition
kPa
Hmdx Definition


Wind Chill Definition


Weather Definition


TIME
00:00 13.7 11.0 84 19 9   101.59     LegendNANA
01:00 12.7 10.5 87 16 8   101.61     LegendNANA
02:00 12.2 10.6 90 17 7   101.63     LegendNANA
03:00 12.3 10.8 91 17 8   101.64     LegendNANA
04:00 11.7 10.5 92 19 4   101.61     LegendNANA
05:00 11.6 10.6 94 16 8   101.64     LegendNANA
06:00 11.4 10.5 95 29 3   101.71     LegendNANA
07:00 13.1 12.1 94 20 2   101.76     LegendNANA
08:00 14.1 13.1 94   0   101.80     LegendNANA
09:00 15.9 14.3 90 31 3   101.82     LegendNANA
10:00 17.2 14.0 82 32 6   101.84     LegendNANA
11:00 16.9 14.1 83 36 5   101.87     LegendNANA
12:00 16.8 14.5 86 4 4   101.86     LegendNANA
13:00 16.5 15.0 91 4 6   101.87     LegendNANA
14:00 16.5 14.3 87 2 8   101.84     LegendNANA
15:00 16.6 14.7 88 5 5   101.84     LegendNANA
16:00 16.9 14.4 85 36 11   101.81     LegendNANA
17:00 16.6 14.9 90 3 10   101.84     LegendNANA
18:00 16.3 14.4 89 5 9   101.81     LegendNANA
19:00 15.7 14.5 92 5 8   101.86     LegendNANA
20:00 15.5 14.4 93 6 7   101.88     LegendNANA
21:00 15.3 14.2 93 4 7   101.89     LegendNANA
22:00 16.1 14.8 92 3 11   101.94     LegendNANA
23:00 15.7 14.2 91 3 11   101.92     LegendNANA

Notes on Data Quality.

Legend

  • E = Estimated
  • M = Missing
  • NA = Not Available
  • ‡ = Partner data that is not subject to review by the National Climate Archives
Date modified: